Year,Month,Day,Hour,Minute,Value (Times are PST for temperature in C)
2013,03,26,00,00,6.30
2013,03,26,00,01,6.20
2013,03,26,00,02,6.20
2013,03,26,00,03,6.20
2013,03,26,00,04,6.20
2013,03,26,00,05,6.20
2013,03,26,00,06,6.20
2013,03,26,00,07,6.20
2013,03,26,00,08,6.20
2013,03,26,00,09,6.20
2013,03,26,00,10,6.20
2013,03,26,00,11,6.20
2013,03,26,00,12,6.20
2013,03,26,00,13,6.20
2013,03,26,00,14,6.20
2013,03,26,00,15,6.20
2013,03,26,00,16,6.20
2013,03,26,00,17,6.20
2013,03,26,00,18,6.20
2013,03,26,00,19,6.10
2013,03,26,00,20,6.10
2013,03,26,00,21,6.10
2013,03,26,00,22,6.10
2013,03,26,00,23,6.10
2013,03,26,00,24,6.10
2013,03,26,00,25,6.10
2013,03,26,00,26,6.10
2013,03,26,00,27,6.10
2013,03,26,00,28,6.10
2013,03,26,00,29,6.10
2013,03,26,00,30,6.10
2013,03,26,00,31,6.10
2013,03,26,00,32,6.10
2013,03,26,00,33,6.10
2013,03,26,00,34,6.10
2013,03,26,00,35,6.10
2013,03,26,00,36,6.10
2013,03,26,00,37,6.10
2013,03,26,00,38,6.10
2013,03,26,00,39,6.10
2013,03,26,00,40,6.10
2013,03,26,00,41,6.10
2013,03,26,00,42,6.10
2013,03,26,00,43,6.10
2013,03,26,00,44,6.10
2013,03,26,00,45,6.10
2013,03,26,00,46,6.10
2013,03,26,00,47,6.10
2013,03,26,00,48,6.10
2013,03,26,00,49,6.10
2013,03,26,00,50,6.10
2013,03,26,00,51,6.10
2013,03,26,00,52,6.10
2013,03,26,00,53,6.10
2013,03,26,00,54,6.10
2013,03,26,00,55,6.10
2013,03,26,00,56,6.10
2013,03,26,00,57,6.10
2013,03,26,00,58,6.10
2013,03,26,00,59,6.00
2013,03,26,01,00,6.00
2013,03,26,01,01,6.00
2013,03,26,01,02,6.00
2013,03,26,01,03,6.00
2013,03,26,01,04,6.00
2013,03,26,01,05,6.00
2013,03,26,01,06,6.00
2013,03,26,01,07,5.90
2013,03,26,01,08,5.90
2013,03,26,01,09,5.90
2013,03,26,01,10,5.90
2013,03,26,01,11,5.90
2013,03,26,01,12,5.90
2013,03,26,01,13,5.90
2013,03,26,01,14,5.90
2013,03,26,01,15,5.90
2013,03,26,01,16,5.90
2013,03,26,01,17,5.90
2013,03,26,01,18,5.90
2013,03,26,01,19,5.90
2013,03,26,01,20,5.90
2013,03,26,01,21,5.90
2013,03,26,01,22,5.90
2013,03,26,01,23,5.90
2013,03,26,01,24,5.90
2013,03,26,01,25,5.90
2013,03,26,01,26,5.90
2013,03,26,01,27,5.90
2013,03,26,01,28,5.90
2013,03,26,01,29,5.90
2013,03,26,01,30,5.90
2013,03,26,01,31,6.00
2013,03,26,01,32,6.00
2013,03,26,01,33,6.00
2013,03,26,01,34,6.00
2013,03,26,01,35,6.00
2013,03,26,01,36,6.00
2013,03,26,01,37,6.00
2013,03,26,01,38,6.00
2013,03,26,01,39,6.10
2013,03,26,01,40,6.10
2013,03,26,01,41,6.10
2013,03,26,01,42,6.10
2013,03,26,01,43,6.10
2013,03,26,01,44,6.10
2013,03,26,01,45,6.10
2013,03,26,01,46,6.10
2013,03,26,01,47,6.10
2013,03,26,01,48,6.00
2013,03,26,01,49,6.00
2013,03,26,01,50,6.00
2013,03,26,01,51,6.00
2013,03,26,01,52,6.00
2013,03,26,01,53,5.90
2013,03,26,01,54,5.90
2013,03,26,01,55,5.90
2013,03,26,01,56,5.90
2013,03,26,01,57,5.90
2013,03,26,01,58,5.90
2013,03,26,01,59,5.90
2013,03,26,02,00,5.90
2013,03,26,02,01,5.90
2013,03,26,02,02,5.90
2013,03,26,02,03,5.80
2013,03,26,02,04,5.80
2013,03,26,02,05,5.80
2013,03,26,02,06,5.80
2013,03,26,02,07,5.80
2013,03,26,02,08,5.80
2013,03,26,02,09,5.80
2013,03,26,02,10,5.80
2013,03,26,02,11,5.80
2013,03,26,02,12,5.80
2013,03,26,02,13,5.80
2013,03,26,02,14,5.80
2013,03,26,02,15,5.80
2013,03,26,02,16,5.80
2013,03,26,02,17,5.80
2013,03,26,02,18,5.80
2013,03,26,02,19,5.80
2013,03,26,02,20,5.80
2013,03,26,02,21,5.80
2013,03,26,02,22,5.80
2013,03,26,02,23,5.80
2013,03,26,02,24,5.80
2013,03,26,02,25,5.80
2013,03,26,02,26,5.80
2013,03,26,02,27,5.80
2013,03,26,02,28,5.80
2013,03,26,02,29,5.80
2013,03,26,02,30,5.80
2013,03,26,02,31,5.80
2013,03,26,02,32,5.80
2013,03,26,02,33,5.80
2013,03,26,02,34,5.70
2013,03,26,02,35,5.70
2013,03,26,02,36,5.70
2013,03,26,02,37,5.70
2013,03,26,02,38,5.70
2013,03,26,02,39,5.70
2013,03,26,02,40,5.70
2013,03,26,02,41,5.70
2013,03,26,02,42,5.70
2013,03,26,02,43,5.70
2013,03,26,02,44,5.60
2013,03,26,02,45,5.60
2013,03,26,02,46,5.60
2013,03,26,02,47,5.60
2013,03,26,02,48,5.60
2013,03,26,02,49,5.60
2013,03,26,02,50,5.60
2013,03,26,02,51,5.60
2013,03,26,02,52,5.60
2013,03,26,02,53,5.60
2013,03,26,02,54,5.60
2013,03,26,02,55,5.60
2013,03,26,02,56,5.60
2013,03,26,02,57,5.60
2013,03,26,02,58,5.60
2013,03,26,02,59,5.50
2013,03,26,03,00,5.50
2013,03,26,03,01,5.50
2013,03,26,03,02,5.50
2013,03,26,03,03,5.50
2013,03,26,03,04,5.50
2013,03,26,03,05,5.60
2013,03,26,03,06,5.60
2013,03,26,03,07,5.60
2013,03,26,03,08,5.60
2013,03,26,03,09,5.70
2013,03,26,03,10,5.70
2013,03,26,03,11,5.70
2013,03,26,03,12,5.70
2013,03,26,03,13,5.70
2013,03,26,03,14,5.70
2013,03,26,03,15,5.70
2013,03,26,03,16,5.70
2013,03,26,03,17,5.70
2013,03,26,03,18,5.70
2013,03,26,03,19,5.70
2013,03,26,03,20,5.70
2013,03,26,03,21,5.70
2013,03,26,03,22,5.70
2013,03,26,03,23,5.70
2013,03,26,03,24,5.70
2013,03,26,03,25,5.70
2013,03,26,03,26,5.70
2013,03,26,03,27,5.70
2013,03,26,03,28,5.70
2013,03,26,03,29,5.70
2013,03,26,03,30,5.70
2013,03,26,03,31,5.70
2013,03,26,03,32,5.70
2013,03,26,03,33,5.70
2013,03,26,03,34,5.70
2013,03,26,03,35,5.70
2013,03,26,03,36,5.70
2013,03,26,03,37,5.70
2013,03,26,03,38,5.70
2013,03,26,03,39,5.70
2013,03,26,03,40,5.70
2013,03,26,03,41,5.70
2013,03,26,03,42,5.70
2013,03,26,03,43,5.70
2013,03,26,03,44,5.70
2013,03,26,03,45,5.70
2013,03,26,03,46,5.70
2013,03,26,03,47,5.60
2013,03,26,03,48,5.60
2013,03,26,03,49,5.60
2013,03,26,03,50,5.60
2013,03,26,03,51,5.60
2013,03,26,03,52,5.60
2013,03,26,03,53,5.60
2013,03,26,03,54,5.60
2013,03,26,03,55,5.60
2013,03,26,03,56,5.60
2013,03,26,03,57,5.60
2013,03,26,03,58,5.60
2013,03,26,03,59,5.60
2013,03,26,04,00,5.60
2013,03,26,04,01,5.60
2013,03,26,04,02,5.60
2013,03,26,04,03,5.50
2013,03,26,04,04,5.50
2013,03,26,04,05,5.50
2013,03,26,04,06,5.50
2013,03,26,04,07,5.50
2013,03,26,04,08,5.50
2013,03,26,04,09,5.50
2013,03,26,04,10,5.50
2013,03,26,04,11,5.60
2013,03,26,04,12,5.60
2013,03,26,04,13,5.50
2013,03,26,04,14,5.50
2013,03,26,04,15,5.50
2013,03,26,04,16,5.50
2013,03,26,04,17,5.50
2013,03,26,04,18,5.50
2013,03,26,04,19,5.50
2013,03,26,04,20,5.50
2013,03,26,04,21,5.50
2013,03,26,04,22,5.50
2013,03,26,04,23,5.50
2013,03,26,04,24,5.50
2013,03,26,04,25,5.50
2013,03,26,04,26,5.40
2013,03,26,04,27,5.40
2013,03,26,04,28,5.40
2013,03,26,04,29,5.40
2013,03,26,04,30,5.40
2013,03,26,04,31,5.40
2013,03,26,04,32,5.40
2013,03,26,04,33,5.40
2013,03,26,04,34,5.40
2013,03,26,04,35,5.40
2013,03,26,04,36,5.40
2013,03,26,04,37,5.40
2013,03,26,04,38,5.40
2013,03,26,04,39,5.40
2013,03,26,04,40,5.40
2013,03,26,04,41,5.40
2013,03,26,04,42,5.40
2013,03,26,04,43,5.40
2013,03,26,04,44,5.40
2013,03,26,04,45,5.40
2013,03,26,04,46,5.40
2013,03,26,04,47,5.40
2013,03,26,04,48,5.40
2013,03,26,04,49,5.40
2013,03,26,04,50,5.30
2013,03,26,04,51,5.40
2013,03,26,04,52,5.40
2013,03,26,04,53,5.40
2013,03,26,04,54,5.40
2013,03,26,04,55,5.40
2013,03,26,04,56,5.40
2013,03,26,04,57,5.40
2013,03,26,04,58,5.40
2013,03,26,04,59,5.40
2013,03,26,05,00,5.40
2013,03,26,05,01,5.40
2013,03,26,05,02,5.40
2013,03,26,05,03,5.40
2013,03,26,05,04,5.40
2013,03,26,05,05,5.40
2013,03,26,05,06,5.40
2013,03,26,05,07,5.40
2013,03,26,05,08,5.40
2013,03,26,05,09,5.40
2013,03,26,05,10,5.40
2013,03,26,05,11,5.40
2013,03,26,05,12,5.40
2013,03,26,05,13,5.40
2013,03,26,05,14,5.40
2013,03,26,05,15,5.40
2013,03,26,05,16,5.40
2013,03,26,05,17,5.40
2013,03,26,05,18,5.40
2013,03,26,05,19,5.40
2013,03,26,05,20,5.30
2013,03,26,05,21,5.30
2013,03,26,05,22,5.30
2013,03,26,05,23,5.30
2013,03,26,05,24,5.30
2013,03,26,05,25,5.30
2013,03,26,05,26,5.30
2013,03,26,05,27,5.30
2013,03,26,05,28,5.30
2013,03,26,05,29,5.30
2013,03,26,05,30,5.30
2013,03,26,05,31,5.30
2013,03,26,05,32,5.30
2013,03,26,05,33,5.30
2013,03,26,05,34,5.30
2013,03,26,05,35,5.30
2013,03,26,05,36,5.30
2013,03,26,05,37,5.30
2013,03,26,05,38,5.30
2013,03,26,05,39,5.30
2013,03,26,05,40,5.30
2013,03,26,05,41,5.30
2013,03,26,05,42,5.30
2013,03,26,05,43,5.30
2013,03,26,05,44,5.30
2013,03,26,05,45,5.30
2013,03,26,05,46,5.30
2013,03,26,05,47,5.30
2013,03,26,05,48,5.30
2013,03,26,05,49,5.30
2013,03,26,05,50,5.30
2013,03,26,05,51,5.30
2013,03,26,05,52,5.30
2013,03,26,05,53,5.30
2013,03,26,05,54,5.30
2013,03,26,05,55,5.30
2013,03,26,05,56,5.30
2013,03,26,05,57,5.30
2013,03,26,05,58,5.30
2013,03,26,05,59,5.30
2013,03,26,06,00,5.30
2013,03,26,06,01,5.30
2013,03,26,06,02,5.30
2013,03,26,06,03,5.30
2013,03,26,06,04,5.30
2013,03,26,06,05,5.30
2013,03,26,06,06,5.30
2013,03,26,06,07,5.30
2013,03,26,06,08,5.30
2013,03,26,06,09,5.30
2013,03,26,06,10,5.30
2013,03,26,06,11,5.30
2013,03,26,06,12,5.30
2013,03,26,06,13,5.30
2013,03,26,06,14,5.30
2013,03,26,06,15,5.30
2013,03,26,06,16,5.30
2013,03,26,06,17,5.30
2013,03,26,06,18,5.30
2013,03,26,06,19,5.30
2013,03,26,06,20,5.30
2013,03,26,06,21,5.30
2013,03,26,06,22,5.30
2013,03,26,06,23,5.30
2013,03,26,06,24,5.30
2013,03,26,06,25,5.30
2013,03,26,06,26,5.30
2013,03,26,06,27,5.30
2013,03,26,06,28,5.30
2013,03,26,06,29,5.30
2013,03,26,06,30,5.30
2013,03,26,06,31,5.30
2013,03,26,06,32,5.30
2013,03,26,06,33,5.30
2013,03,26,06,34,5.30
2013,03,26,06,35,5.30
2013,03,26,06,36,5.30
2013,03,26,06,37,5.30
2013,03,26,06,38,5.30
2013,03,26,06,39,5.30
2013,03,26,06,40,5.30
2013,03,26,06,41,5.30
2013,03,26,06,42,5.30
2013,03,26,06,43,5.40
2013,03,26,06,44,5.40
2013,03,26,06,45,5.40
2013,03,26,06,46,5.40
2013,03,26,06,47,5.40
2013,03,26,06,48,5.40
2013,03,26,06,49,5.40
2013,03,26,06,50,5.40
2013,03,26,06,51,5.40
2013,03,26,06,52,5.40
2013,03,26,06,53,5.40
2013,03,26,06,54,5.40
2013,03,26,06,55,5.40
2013,03,26,06,56,5.40
2013,03,26,06,57,5.40
2013,03,26,06,58,5.40
2013,03,26,06,59,5.40
2013,03,26,07,00,5.40
2013,03,26,07,01,5.40
2013,03,26,07,02,5.40
2013,03,26,07,03,5.40
2013,03,26,07,04,5.40
2013,03,26,07,05,5.40
2013,03,26,07,06,5.40
2013,03,26,07,07,5.40
2013,03,26,07,08,5.40
2013,03,26,07,09,5.40
2013,03,26,07,10,5.40
2013,03,26,07,11,5.40
2013,03,26,07,12,5.40
2013,03,26,07,13,5.40
2013,03,26,07,14,5.40
2013,03,26,07,15,5.40
2013,03,26,07,16,5.40
2013,03,26,07,17,5.40
2013,03,26,07,18,5.40
2013,03,26,07,19,5.40
2013,03,26,07,20,5.40
2013,03,26,07,21,5.40
2013,03,26,07,22,5.40
2013,03,26,07,23,5.40
2013,03,26,07,24,5.40
2013,03,26,07,25,5.40
2013,03,26,07,26,5.40
2013,03,26,07,27,5.40
2013,03,26,07,28,5.40
2013,03,26,07,29,5.40
2013,03,26,07,30,5.40
2013,03,26,07,31,5.40
2013,03,26,07,32,5.40
2013,03,26,07,33,5.40
2013,03,26,07,34,5.40
2013,03,26,07,35,5.40
2013,03,26,07,36,5.40
2013,03,26,07,37,5.40
2013,03,26,07,38,5.40
2013,03,26,07,39,5.40
2013,03,26,07,40,5.40
2013,03,26,07,41,5.40
2013,03,26,07,42,5.50
2013,03,26,07,43,5.50
2013,03,26,07,44,5.50
2013,03,26,07,45,5.50
2013,03,26,07,46,5.50
2013,03,26,07,47,5.50
2013,03,26,07,48,5.50
2013,03,26,07,49,5.50
2013,03,26,07,50,5.50
2013,03,26,07,51,5.60
2013,03,26,07,52,5.60
2013,03,26,07,53,5.60
2013,03,26,07,54,5.60
2013,03,26,07,55,5.60
2013,03,26,07,56,5.60
2013,03,26,07,57,5.60
2013,03,26,07,58,5.70
2013,03,26,07,59,5.70
2013,03,26,08,00,5.70
2013,03,26,08,01,5.80
2013,03,26,08,02,5.80
2013,03,26,08,03,5.80
2013,03,26,08,04,5.80
2013,03,26,08,05,5.80
2013,03,26,08,06,5.90
2013,03,26,08,07,5.90
2013,03,26,08,08,5.90
2013,03,26,08,09,5.90
2013,03,26,08,10,5.90
2013,03,26,08,11,5.90
2013,03,26,08,12,6.00
2013,03,26,08,13,6.00
2013,03,26,08,14,6.00
2013,03,26,08,15,6.10
2013,03,26,08,16,6.10
2013,03,26,08,17,6.10
2013,03,26,08,18,6.10
2013,03,26,08,19,6.10
2013,03,26,08,20,6.20
2013,03,26,08,21,6.20
2013,03,26,08,22,6.20
2013,03,26,08,23,6.20
2013,03,26,08,24,6.20
2013,03,26,08,25,6.20
2013,03,26,08,26,6.20
2013,03,26,08,27,6.20
2013,03,26,08,28,6.20
2013,03,26,08,29,6.20
2013,03,26,08,30,6.20
2013,03,26,08,31,6.20
2013,03,26,08,32,6.20
2013,03,26,08,33,6.20
2013,03,26,08,34,6.20
2013,03,26,08,35,6.20
2013,03,26,08,36,6.20
2013,03,26,08,37,6.20
2013,03,26,08,38,6.20
2013,03,26,08,39,6.20
2013,03,26,08,40,6.20
2013,03,26,08,41,6.20
2013,03,26,08,42,6.30
2013,03,26,08,43,6.30
2013,03,26,08,44,6.30
2013,03,26,08,45,6.30
2013,03,26,08,46,6.30
2013,03,26,08,47,6.30
2013,03,26,08,48,6.40
2013,03,26,08,49,6.40
2013,03,26,08,50,6.40
2013,03,26,08,51,6.40
2013,03,26,08,52,6.50
2013,03,26,08,53,6.50
2013,03,26,08,54,6.50
2013,03,26,08,55,6.60
2013,03,26,08,56,6.60
2013,03,26,08,57,6.60
2013,03,26,08,58,6.60
2013,03,26,08,59,6.70
2013,03,26,09,00,6.70
2013,03,26,09,01,6.70
2013,03,26,09,02,6.70
2013,03,26,09,03,6.70
2013,03,26,09,04,6.70
2013,03,26,09,05,6.70
2013,03,26,09,06,6.70
2013,03,26,09,07,6.70
2013,03,26,09,08,6.70
2013,03,26,09,09,6.70
2013,03,26,09,10,6.70
2013,03,26,09,11,6.70
2013,03,26,09,12,6.70
2013,03,26,09,13,6.70
2013,03,26,09,14,6.70
2013,03,26,09,15,6.70
2013,03,26,09,16,6.70
2013,03,26,09,17,6.70
2013,03,26,09,18,6.70
2013,03,26,09,19,6.70
2013,03,26,09,20,6.70
2013,03,26,09,21,6.70
2013,03,26,09,22,6.70
2013,03,26,09,23,6.70
2013,03,26,09,24,6.70
2013,03,26,09,25,6.70
2013,03,26,09,26,6.70
2013,03,26,09,27,6.80
2013,03,26,09,28,6.80
2013,03,26,09,29,6.80
2013,03,26,09,30,6.80
2013,03,26,09,31,6.80
2013,03,26,09,32,6.80
2013,03,26,09,33,6.80
2013,03,26,09,34,6.90
2013,03,26,09,35,6.90
2013,03,26,09,36,6.90
2013,03,26,09,37,6.90
2013,03,26,09,38,6.90
2013,03,26,09,39,6.90
2013,03,26,09,40,7.00
2013,03,26,09,41,7.00
2013,03,26,09,42,7.00
2013,03,26,09,43,7.00
2013,03,26,09,44,7.10
2013,03,26,09,45,7.10
2013,03,26,09,46,7.10
2013,03,26,09,47,7.10
2013,03,26,09,48,7.10
2013,03,26,09,49,7.20
2013,03,26,09,50,7.20
2013,03,26,09,51,7.20
2013,03,26,09,52,7.20
2013,03,26,09,53,7.20
2013,03,26,09,54,7.30
2013,03,26,09,55,7.30
2013,03,26,09,56,7.30
2013,03,26,09,57,7.30
2013,03,26,09,58,7.40
2013,03,26,09,59,7.40
2013,03,26,10,00,7.50
2013,03,26,10,01,7.50
2013,03,26,10,02,7.60
2013,03,26,10,03,7.60
2013,03,26,10,04,7.70
2013,03,26,10,05,7.80
2013,03,26,10,06,7.80
2013,03,26,10,07,7.90
2013,03,26,10,08,8.00
2013,03,26,10,09,8.10
2013,03,26,10,10,8.20
2013,03,26,10,11,8.30
2013,03,26,10,12,8.40
2013,03,26,10,13,8.50
2013,03,26,10,14,8.60
2013,03,26,10,15,8.70
2013,03,26,10,16,8.80
2013,03,26,10,17,8.90
2013,03,26,10,18,9.00
2013,03,26,10,19,9.10
2013,03,26,10,20,9.10
2013,03,26,10,21,9.20
2013,03,26,10,22,9.30
2013,03,26,10,23,9.40
2013,03,26,10,24,9.50
2013,03,26,10,25,9.60
2013,03,26,10,26,9.70
2013,03,26,10,27,9.70
2013,03,26,10,28,9.80
2013,03,26,10,29,9.90
2013,03,26,10,30,10.00
2013,03,26,10,31,10.00
2013,03,26,10,32,10.10
2013,03,26,10,33,10.10
2013,03,26,10,34,10.10
2013,03,26,10,35,10.20
2013,03,26,10,36,10.20
2013,03,26,10,37,10.20
2013,03,26,10,38,10.20
2013,03,26,10,39,10.20
2013,03,26,10,40,10.30
2013,03,26,10,41,10.30
2013,03,26,10,42,10.30
2013,03,26,10,43,10.30
2013,03,26,10,44,10.20
2013,03,26,10,45,10.20
2013,03,26,10,46,10.20
2013,03,26,10,47,10.20
2013,03,26,10,48,10.30
2013,03,26,10,49,10.30
2013,03,26,10,50,10.30
2013,03,26,10,51,10.30
2013,03,26,10,52,10.40
2013,03,26,10,53,10.40
2013,03,26,10,54,10.40
2013,03,26,10,55,10.50
2013,03,26,10,56,10.50
2013,03,26,10,57,10.50
2013,03,26,10,58,10.50
2013,03,26,10,59,10.60
2013,03,26,11,00,10.70
2013,03,26,11,01,10.70
2013,03,26,11,02,10.80
2013,03,26,11,03,10.80
2013,03,26,11,04,10.90
2013,03,26,11,05,11.00
2013,03,26,11,06,11.10
2013,03,26,11,07,11.20
2013,03,26,11,08,11.30
2013,03,26,11,09,11.30
2013,03,26,11,10,11.30
2013,03,26,11,11,11.30
2013,03,26,11,12,11.30
2013,03,26,11,13,11.30
2013,03,26,11,14,11.30
2013,03,26,11,15,11.30
2013,03,26,11,16,11.40
2013,03,26,11,17,11.40
2013,03,26,11,18,11.40
2013,03,26,11,19,11.40
2013,03,26,11,20,11.40
2013,03,26,11,21,11.50
2013,03,26,11,22,11.60
2013,03,26,11,23,11.60
2013,03,26,11,24,11.60
2013,03,26,11,25,11.60
2013,03,26,11,26,11.60
2013,03,26,11,27,11.60
2013,03,26,11,28,11.50
2013,03,26,11,29,11.50
2013,03,26,11,30,11.40
2013,03,26,11,31,11.40
2013,03,26,11,32,11.50
2013,03,26,11,33,11.50
2013,03,26,11,34,11.60
2013,03,26,11,35,11.60
2013,03,26,11,36,11.60
2013,03,26,11,37,11.60
2013,03,26,11,38,11.60
2013,03,26,11,39,11.60
2013,03,26,11,40,11.60
2013,03,26,11,41,11.50
2013,03,26,11,42,11.50
2013,03,26,11,43,11.50
2013,03,26,11,44,11.50
2013,03,26,11,45,11.60
2013,03,26,11,46,11.60
2013,03,26,11,47,11.70
2013,03,26,11,48,11.70
2013,03,26,11,49,11.80
2013,03,26,11,50,11.80
2013,03,26,11,51,11.80
2013,03,26,11,52,11.80
2013,03,26,11,53,11.90
2013,03,26,11,54,12.00
2013,03,26,11,55,12.00
2013,03,26,11,56,12.10
2013,03,26,11,57,12.20
2013,03,26,11,58,12.30
2013,03,26,11,59,12.40
2013,03,26,12,00,12.40
2013,03,26,12,01,12.40
2013,03,26,12,02,12.40
2013,03,26,12,03,12.40
2013,03,26,12,04,12.40
2013,03,26,12,05,12.30
2013,03,26,12,06,12.30
2013,03,26,12,07,12.30
2013,03,26,12,08,12.20
2013,03,26,12,09,12.20
2013,03,26,12,10,12.20
2013,03,26,12,11,12.10
2013,03,26,12,12,12.00
2013,03,26,12,13,12.00
2013,03,26,12,14,11.90
2013,03,26,12,15,11.80
2013,03,26,12,16,11.70
2013,03,26,12,17,11.60
2013,03,26,12,18,11.50
2013,03,26,12,19,11.50
2013,03,26,12,20,11.40
2013,03,26,12,21,11.40
2013,03,26,12,22,11.30
2013,03,26,12,23,11.20
2013,03,26,12,24,11.20
2013,03,26,12,25,11.10
2013,03,26,12,26,11.00
2013,03,26,12,27,11.00
2013,03,26,12,28,10.90
2013,03,26,12,29,10.90
2013,03,26,12,30,10.90
2013,03,26,12,31,10.90
2013,03,26,12,32,10.90
2013,03,26,12,33,10.90
2013,03,26,12,34,11.00
2013,03,26,12,35,11.00
2013,03,26,12,36,11.10
2013,03,26,12,37,11.10
2013,03,26,12,38,11.10
2013,03,26,12,39,11.00
2013,03,26,12,40,11.00
2013,03,26,12,41,11.10
2013,03,26,12,42,11.10
2013,03,26,12,43,11.10
2013,03,26,12,44,11.10
2013,03,26,12,45,11.00
2013,03,26,12,46,11.00
2013,03,26,12,47,10.90
2013,03,26,12,48,10.90
2013,03,26,12,49,10.90
2013,03,26,12,50,10.90
2013,03,26,12,51,10.90
2013,03,26,12,52,10.80
2013,03,26,12,53,10.70
2013,03,26,12,54,10.70
2013,03,26,12,55,10.60
2013,03,26,12,56,10.50
2013,03,26,12,57,10.50
2013,03,26,12,58,10.40
2013,03,26,12,59,10.40
2013,03,26,13,00,10.40
2013,03,26,13,01,10.30
2013,03,26,13,02,10.30
2013,03,26,13,03,10.30
2013,03,26,13,04,10.30
2013,03,26,13,05,10.30
2013,03,26,13,06,10.20
2013,03,26,13,07,10.20
2013,03,26,13,08,10.20
2013,03,26,13,09,10.20
2013,03,26,13,10,10.30
2013,03,26,13,11,10.30
2013,03,26,13,12,10.40
2013,03,26,13,13,10.40
2013,03,26,13,14,10.50
2013,03,26,13,15,10.60
2013,03,26,13,16,10.60
2013,03,26,13,17,10.70
2013,03,26,13,18,10.80
2013,03,26,13,19,10.80
2013,03,26,13,20,10.80
2013,03,26,13,21,10.90
2013,03,26,13,22,10.90
2013,03,26,13,23,10.90
2013,03,26,13,24,11.00
2013,03,26,13,25,11.00
2013,03,26,13,26,11.10
2013,03,26,13,27,11.20
2013,03,26,13,28,11.20
2013,03,26,13,29,11.30
2013,03,26,13,30,11.30
2013,03,26,13,31,11.20
2013,03,26,13,32,11.20
2013,03,26,13,33,11.30
2013,03,26,13,34,11.30
2013,03,26,13,35,11.40
2013,03,26,13,36,11.50
2013,03,26,13,37,11.50
2013,03,26,13,38,11.60
2013,03,26,13,39,11.70
2013,03,26,13,40,11.80
2013,03,26,13,41,12.00
2013,03,26,13,42,12.10
2013,03,26,13,43,12.20
2013,03,26,13,44,12.30
2013,03,26,13,45,12.30
2013,03,26,13,46,12.30
2013,03,26,13,47,12.30
2013,03,26,13,48,12.30
2013,03,26,13,49,12.20
2013,03,26,13,50,12.20
2013,03,26,13,51,12.10
2013,03,26,13,52,12.10
2013,03,26,13,53,12.00
2013,03,26,13,54,12.00
2013,03,26,13,55,12.00
2013,03,26,13,56,12.00
2013,03,26,13,57,12.00
2013,03,26,13,58,12.00
2013,03,26,13,59,12.00
2013,03,26,14,00,12.10
2013,03,26,14,01,12.10
2013,03,26,14,02,12.10
2013,03,26,14,03,12.10
2013,03,26,14,04,12.10
2013,03,26,14,05,12.10
2013,03,26,14,06,12.10
2013,03,26,14,07,12.20
2013,03,26,14,08,12.20
2013,03,26,14,09,12.30
2013,03,26,14,10,12.30
2013,03,26,14,11,12.30
2013,03,26,14,12,12.30
2013,03,26,14,13,12.30
2013,03,26,14,14,12.30
2013,03,26,14,15,12.30
2013,03,26,14,16,12.40
2013,03,26,14,17,12.30
2013,03,26,14,18,12.20
2013,03,26,14,19,12.10
2013,03,26,14,20,12.00
2013,03,26,14,21,11.80
2013,03,26,14,22,11.80
2013,03,26,14,23,11.80
2013,03,26,14,24,11.90
2013,03,26,14,25,11.80
2013,03,26,14,26,11.80
2013,03,26,14,27,11.80
2013,03,26,14,28,11.80
2013,03,26,14,29,11.90
2013,03,26,14,30,11.90
2013,03,26,14,31,12.00
2013,03,26,14,32,12.00
2013,03,26,14,33,12.00
2013,03,26,14,34,12.10
2013,03,26,14,35,12.10
2013,03,26,14,36,12.10
2013,03,26,14,37,12.10
2013,03,26,14,38,12.10
2013,03,26,14,39,12.00
2013,03,26,14,40,11.90
2013,03,26,14,41,11.90
2013,03,26,14,42,11.90
2013,03,26,14,43,11.90
2013,03,26,14,44,11.90
2013,03,26,14,45,11.90
2013,03,26,14,46,11.90
2013,03,26,14,47,11.80
2013,03,26,14,48,11.80
2013,03,26,14,49,11.70
2013,03,26,14,50,11.60
2013,03,26,14,51,11.50
2013,03,26,14,52,11.40
2013,03,26,14,53,11.40
2013,03,26,14,54,11.30
2013,03,26,14,55,11.30
2013,03,26,14,56,11.20
2013,03,26,14,57,11.10
2013,03,26,14,58,11.00
2013,03,26,14,59,10.90
2013,03,26,15,00,10.80
2013,03,26,15,01,10.80
2013,03,26,15,02,10.80
2013,03,26,15,03,10.70
2013,03,26,15,04,10.70
2013,03,26,15,05,10.70
2013,03,26,15,06,10.70
2013,03,26,15,07,10.70
2013,03,26,15,08,10.70
2013,03,26,15,09,10.70
2013,03,26,15,10,10.70
2013,03,26,15,11,10.70
2013,03,26,15,12,10.70
2013,03,26,15,13,10.70
2013,03,26,15,14,10.60
2013,03,26,15,15,10.60
2013,03,26,15,16,10.60
2013,03,26,15,17,10.60
2013,03,26,15,18,10.50
2013,03,26,15,19,10.50
2013,03,26,15,20,10.40
2013,03,26,15,21,10.40
2013,03,26,15,22,10.40
2013,03,26,15,23,10.40
2013,03,26,15,24,10.40
2013,03,26,15,25,10.40
2013,03,26,15,26,10.40
2013,03,26,15,27,10.40
2013,03,26,15,28,10.40
2013,03,26,15,29,10.40
2013,03,26,15,30,10.40
2013,03,26,15,31,10.40
2013,03,26,15,32,10.50
2013,03,26,15,33,10.50
2013,03,26,15,34,10.50
2013,03,26,15,35,10.60
2013,03,26,15,36,10.60
2013,03,26,15,37,10.60
2013,03,26,15,38,10.60
2013,03,26,15,39,10.60
2013,03,26,15,40,10.70
2013,03,26,15,41,10.70
2013,03,26,15,42,10.70
2013,03,26,15,43,10.70
2013,03,26,15,44,10.70
2013,03,26,15,45,10.70
2013,03,26,15,46,10.70
2013,03,26,15,47,10.70
2013,03,26,15,48,10.70
2013,03,26,15,49,10.70
2013,03,26,15,50,10.60
2013,03,26,15,51,10.60
2013,03,26,15,52,10.60
2013,03,26,15,53,10.60
2013,03,26,15,54,10.60
2013,03,26,15,55,10.50
2013,03,26,15,56,10.50
2013,03,26,15,57,10.40
2013,03,26,15,58,10.40
2013,03,26,15,59,10.40
2013,03,26,16,00,10.40
2013,03,26,16,01,10.40
2013,03,26,16,02,10.40
2013,03,26,16,03,10.40
2013,03,26,16,04,10.40
2013,03,26,16,05,10.40
2013,03,26,16,06,10.40
2013,03,26,16,07,10.40
2013,03,26,16,08,10.50
2013,03,26,16,09,10.50
2013,03,26,16,10,10.50
2013,03,26,16,11,10.50
2013,03,26,16,12,10.40
2013,03,26,16,13,10.40
2013,03,26,16,14,10.30
2013,03,26,16,15,10.30
2013,03,26,16,16,10.30
2013,03,26,16,17,10.40
2013,03,26,16,18,10.40
2013,03,26,16,19,10.50
2013,03,26,16,20,10.60
2013,03,26,16,21,10.70
2013,03,26,16,22,10.70
2013,03,26,16,23,10.70
2013,03,26,16,24,10.70
2013,03,26,16,25,10.70
2013,03,26,16,26,10.70
2013,03,26,16,27,10.70
2013,03,26,16,28,10.80
2013,03,26,16,29,10.80
2013,03,26,16,30,10.80
2013,03,26,16,31,10.80
2013,03,26,16,32,10.90
2013,03,26,16,33,10.90
2013,03,26,16,34,10.90
2013,03,26,16,35,10.90
2013,03,26,16,36,10.90
2013,03,26,16,37,10.90
2013,03,26,16,38,10.90
2013,03,26,16,39,11.00
2013,03,26,16,40,11.00
2013,03,26,16,41,11.00
2013,03,26,16,42,11.00
2013,03,26,16,43,11.00
2013,03,26,16,44,11.00
2013,03,26,16,45,10.90
2013,03,26,16,46,10.90
2013,03,26,16,47,10.90
2013,03,26,16,48,10.90
2013,03,26,16,49,10.90
2013,03,26,16,50,11.00
2013,03,26,16,51,11.00
2013,03,26,16,52,11.00
2013,03,26,16,53,11.00
2013,03,26,16,54,11.00
2013,03,26,16,55,10.90
2013,03,26,16,56,10.90
2013,03,26,16,57,10.90
2013,03,26,16,58,10.90
2013,03,26,16,59,10.90
2013,03,26,17,00,10.90
2013,03,26,17,01,10.90
2013,03,26,17,02,10.90
2013,03,26,17,03,10.90
2013,03,26,17,04,10.90
2013,03,26,17,05,10.90
2013,03,26,17,06,10.90
2013,03,26,17,07,10.90
2013,03,26,17,08,11.00
2013,03,26,17,09,11.00
2013,03,26,17,10,11.00
2013,03,26,17,11,11.00
2013,03,26,17,12,11.00
2013,03,26,17,13,11.00
2013,03,26,17,14,10.90
2013,03,26,17,15,10.90
2013,03,26,17,16,10.90
2013,03,26,17,17,10.90
2013,03,26,17,18,10.90
2013,03,26,17,19,10.90
2013,03,26,17,20,10.90
2013,03,26,17,21,10.90
2013,03,26,17,22,10.80
2013,03,26,17,23,10.80
2013,03,26,17,24,10.80
2013,03,26,17,25,10.80
2013,03,26,17,26,10.70
2013,03,26,17,27,10.70
2013,03,26,17,28,10.70
2013,03,26,17,29,10.70
2013,03,26,17,30,10.70
2013,03,26,17,31,10.60
2013,03,26,17,32,10.60
2013,03,26,17,33,10.60
2013,03,26,17,34,10.60
2013,03,26,17,35,10.50
2013,03,26,17,36,10.50
2013,03,26,17,37,10.40
2013,03,26,17,38,10.40
2013,03,26,17,39,10.30
2013,03,26,17,40,10.30
2013,03,26,17,41,10.30
2013,03,26,17,42,10.30
2013,03,26,17,43,10.30
2013,03,26,17,44,10.20
2013,03,26,17,45,10.20
2013,03,26,17,46,10.20